Regional Weather Roundup
Issued by NWS Wakefield, VA

Home | Current Version | Previous Version | Graphics & Text | Print | Product List | Glossary On
Versions: 1 2 3 4 5 6 7 8 9 10 11 12 13 14 15 16 17 18 19 20 21 22 23 24 25 26 27 28 29 30 31 32 33 34 35 36 37 38 39 40 41 42 43 44 45 46 47 48 49 50
000
ASUS41 KAKQ 231115
RWRAKQ

REGIONAL WEATHER ROUNDUP
NATIONAL WEATHER SERVICE WAKEFIELD VA
700 AM EDT THU MAR 23 2017

Note: "fair" indicates few or no clouds below 12,000 feet with no
significant weather and/or obstructions to visibility. * = Denotes
station may not report precipitation (e.g., rain,snow,etc.),
thunder or fog.

VAZ042-051-052>054-056-231200-
NORTHERN VIRGINIA

CITY           SKY/WX    TMP DP  RH WIND       PRES   REMARKS
WASH NATIONAL  CLEAR     30   7  37 NE7       30.63R
DULLES         CLEAR     22   9  57 CALM      30.60R
FORT BELVOIR   CLEAR     23  12  62 CALM      30.62R
QUANTICO       CLEAR     32  11  41 E9        30.63R
FREDERICKSBRG* CLEAR     26  16  67 CALM      30.61R
STAFFORD*      CLEAR     20  14  79 CALM      30.65R
WARRENTON      CLEAR     22   9  58 CALM      30.60R
CULPEPER*      CLEAR     23  13  67 NE3       30.61R
MANASSAS*      CLEAR     21  16  81 CALM      30.62R
LEESBURG*      CLEAR     27  12  54 CALM      30.61R
WINCHESTER     CLEAR     23   9  54 CALM      30.58R
FRONT ROYAL*   SUNNY     25  12  58 CALM      30.57R
LURAY*         SUNNY     28  12  50 N8        30.56R
$$

VAZ048-049-060>072-079>083-231200-
CENTRAL AND SOUTH CENTRAL VIRGINIA

CITY           SKY/WX    TMP DP  RH WIND       PRES   REMARKS
RICHMOND       PTCLDY    28  15  58 NE7       30.59R
CHESTERFIELD*  FAIR      27   3  36 CALM      30.59R
PETERSBURG*    CLEAR     22  18  84 CALM      30.58R
HANOVER        CLEAR     24  15  68 CALM      30.61R
TAPPAHANNOCK*  CLEAR     26   3  37 CALM      30.61R
QUINTON*       FAIR      27  19  71 CALM      30.59R
CHARLOTTSVILLE CLEAR     28   8  43 N3        30.57R
GORDONSVILLE*  SUNNY     22  17  81 CALM      30.58R
ORANGE*        CLEAR     25  12  58 NE5       30.60R
LOUISA*        CLEAR     28  12  50 NE5       30.57R
BUMPASS*       FAIR      28   9  45 CALM      30.58R
FARMVILLE*     CLEAR     29  14  54 N5        30.56R
CREWE*         FAIR      25  13  59 CALM      30.56R
FORT PICKETT*  FAIR      29   4  35 NE3       30.56R
CHASE CITY*    FAIR      31   7  37 CALM      30.55R
CLARKSVILLE*   FAIR      32  14  47 NE3       30.54R
SOUTH HILL*    CLEAR     26  18  71 CALM      30.61R
LAWRENCEVILLE* FAIR      29  12  49 CALM      30.56R
EMPORIA*       CLEAR     30  18  59 CALM      30.59R
$$

VAZ088>098-231200-
SOUTHEAST VIRGINIA

CITY           SKY/WX    TMP DP  RH WIND       PRES   REMARKS
NORFOLK        CLEAR     35  12  38 NE22G28   30.57R WCI  23
VIRGINIA BEACH PTCLDY    33  16  49 NE10      30.56R WCI  25
NORFOLK NAVAL  CLEAR     34  11  38 NE17G24   30.59R WCI  23
WEST POINT*    CLEAR     29  10  45 CALM      30.62R
SALUDA*        FAIR      32  12  44 N8        30.59R
NEWPORT NEWS   CLEAR     31  16  54 NE6       30.58R
LANGLEY AFB    CLEAR     33  18  54 NE12      30.57R WCI  24
FORT EUSTIS    CLEAR     30  14  51 NE5       30.56R
WILLIAMSBURG*  CLEAR     30  19  64 CALM      30.59R
HR EXEC AP*    FAIR      34  14  44 NE8       30.57R
FRANKLIN*      PTCLDY    25  20  82 CALM      30.59R
US460-WAKEFLD  CLEAR     25  19  78 CALM      30.58R
$$

VAZ020-022-025-037-045-231200-
WEST CENTRAL AND SOUTHWEST VIRGINIA

CITY           SKY/WX    TMP DP  RH WIND       PRES   REMARKS
STAUNTON*      CLEAR     19  12  74 CALM      30.55R
WAYNESBORO*    SUNNY     21  10  62 CALM      30.51R
HOT SPRINGS VA CLEAR     25   3  39 S3        30.38R
LYNCHBURG      CLEAR     27  14  58 N3        30.56R
DANVILLE       PTCLDY    26  16  65 CALM      30.55R
SOUTH BOSTON*  FAIR      28  14  55 CALM      30.56R
MARTINSVILLE   PTCLDY    23  16  75 CALM      30.56R
ROANOKE        CLEAR     33  11  39 CALM      30.54R
BLACKSBURG     CLEAR     30  13  50 SE5       30.50R
DUBLIN*        CLEAR     26  18  72 CALM      30.48R
MARION*        CLEAR     30  15  53 NE7       30.46R
HILLSVILLE*    CLEAR     29  10  45 CALM      30.42R
RICHLANDS*     FAIR      34  14  43 CALM      30.36R
WISE*          CLEAR     36  16  44 CALM      30.35S
ABINGDON*      CLEAR     37  17  44 E12       30.39R
$$

MDZ021>025-VAZ099-100-231200-
SOUTHERN MARYLAND AND THE DELMARVA PENINSULA

CITY           SKY/WX    TMP DP  RH WIND       PRES   REMARKS
PATUXENT RIVER PTCLDY    28  10  46 NE10      30.61R WCI  19
BAY BRIDGE APT CLEAR     27   7  43 MISG      30.62R
LEONARDTOWN    CLEAR     30  12  47 NE3       30.62R
DOVER          CLEAR     22  11  63 N9        30.60R
GEORGETOWN     CLEAR     27   8  44 N7        30.61R
EASTON         CLEAR     25   7  46 N7        30.65R
CAMBRIDGE      CLEAR     27   3  36 N9        30.62R
SALISBURY      CLEAR     24   8  50 N7        30.60R
OCEAN CITY     CLEAR     27  10  49 N10       30.59R WCI  17
WALLOPS ISLAND CLEAR     25  10  53 N5        30.60R
ACCOMACK*      CLEAR     28   8  43 N5        30.59R
$$

NCZ012>017-030>032-231200-
NORTH CENTRAL AND EASTERN NORTH CAROLINA

CITY           SKY/WX    TMP DP  RH WIND       PRES   REMARKS
ROANOKE RAPIDS FAIR      28  19  69 NE3       30.56R
RALEIGH        PTCLDY    32  14  47 NE8       30.53R
ELIZABETH CITY CLEAR     35  23  61 N9        30.57R
AHOSKIE*       NOT AVBL
EDENTON*       CLEAR     34  24  66 N6        30.55R
CURRITUCK*     CLEAR     37  22  53 NE9       30.57R
KILL DEVIL HLS NOT AVBL
MANTEO         CLEAR     38  23  55 NE12G18   30.54R
CAPE HATTERAS  CLEAR     41  23  48 NE13G22   30.50R
TARBORO*       NOT AVBL
GOLDSBORO      CLEAR     34  26  70 E5        30.51R
WASHINGTON     CLEAR     32  25  73 NE3       30.53R
GREENVILLE     CLEAR     32  28  86 N3        30.53R
NEW BERN       CLEAR     37  29  72 E9        30.53R
WILMINGTON     PTCLDY    33  28  81 NE8       30.49R
$$

VAZ048-231200-
ELSEWHERE

CITY           SKY/WX    TMP DP  RH WIND       PRES   REMARKS
HARRISBURG PA  CLEAR     25   6  44 NW6       30.61R
BALTIMORE      PTCLDY    27   4  37 VRB5      30.61R
ANNAPOLIS      CLEAR     32  13  45 N6        30.62R
ANDREWS AFB    CLEAR     25   5  42 NE3       30.60R
PHILADELPHIA   CLEAR     24   5  44 NW10      30.61R WCI  14
HENDERSON NC   PTCLDY    25  15  66 CALM      30.54R
GREENSBORO     PTCLDY    32  14  47 E6        30.51R
ROCKY MOUNT    PTCLDY    29  23  78 N7        30.54R
$$

VAZ100-231200-
MARINE

STATION/POSITION TIME  TEMP    WIND        PRES    WAVE   SWELL
                       AIR SEA DIR/SP/G            HT/PER HT/PER
                 (UTC) (F)     (DEG/KT/KT) (MB)    (FT/S) (FT/S)
CAPE MAY NJ      1048   26 42   20/  4/  9 1035.7R
LEWES DE         1048   29 40   20/ 14/ 17 1036.2R
OCEAN-CITY-INLET 1048   30 42   30/  9/ 14 1036.0R
WACHAPREAGUE VA  1048   27 46  320/  2/  4 1035.7R
THOMAS POINT MD  1100   31 43   10/ 14/ 14   N/A
GOOSES REEF MD   1050   31      70/ 12/ 16 1037.0R
COVE POINT MD    1048   29      50/ 13/ 16 1037.1R
BISHOPS HEAD MD  1048   29 39   20/  7/ 20 1036.7R
PINEY POINT MD   1048           70/  3/  4   N/A
POTOMAC MD       1050   32      50/ 12/ 16 1035.3R
CAMBRIDGE MD     1048   28 44   20/  6/ 10 1036.0R
LEWISETTA VA     1048   32 47   50/ 10/ 14 1036.1R
RAPPAHANNOCK LGT 1048           30/ 19/ 22 1036.3R
STINGRAY PT      1050   33      60/ 16/ 19 1035.7R
YORK RVR RNG VA  1048   35      50/ 15/ 19 1034.9R
YORKTOWN VA      1048   35 48   40/ 12/ 14 1035.2R
JAMESTOWN VA     1050   33      40/  4/  8   N/A
DOMINION TERM VA 1048   35      40/  3/  6 1035.5R
KIPTOPEKE VA     1048      45   20/  7/ 10   N/A
CHES BAY BRIDGE  1048   35 47   30/ 19/ 22 1035.0R
CAPE HENRY VA    1048   36      20/ 19/ 24   N/A
WILLOUBY STN VA  1048   35      50/ 17/ 20 1035.9R
S CRANEY ISL VA  1048   36      40/ 16/ 19 1034.7R
CAPE HENRY BUOY  1042      45                N/A     6/ 7   2/11
CAPE CHARLES BUO 1051      45                N/A     5/ 7
OFFSHORE WE BUOY 1051      45                N/A     7/ 8   2/11
64NM E OF VA BCH 1050   39 50   20/ 19/ 25 1033.3R   9/ 8
DUCK PIER NC     1048   39 47   20/ 18/ 20 1033.7R
44100 DUCK FRF   1035      47                N/A     7/ 8   2/11
44056 DUCK FRF   1030      47                N/A     6/ 8   2/11
OREGON INLET NC  1036   39 50   20/ 15/ 20 1033.6R
HATTERAS NC      1048   42 53   30/ 15/ 21 1032.5R
DIAMOND SHLS NC  1050   45 75   30/ 21/ 29 1032.1R  11/10
CAPE LOOKOUT NC  1000   44      30/ 17/ 20 1031.6R
$$



USA.gov is the U.S. government's official web portal to all federal, state and local government web resources and services.